Location: Ay?beleni
(36.6500°N, 30.3000°E)
Time: 13:47:53
(UTC+00:00)

Cosmos 2237 Rocket - Visible Passes

Search period start: 06 August 2020 00:00
Search period end: 16 August 2020 00:00
Orbit: 834 x 850 km, 71.0° (Epoch: 06 August)

Date Brightness Start Highest point End Pass type
(mag) Time Alt. Az. Time Alt. Az. Time Alt. Az.
06 Aug 3.8 01:13:15 10° NW 01:15:19 17° WNW 01:15:19 17° WNW visible
06 Aug 3.2 23:13:25 10° N 23:18:06 42° NE 23:18:06 42° NE visible
07 Aug 4.0 00:58:17 10° NW 00:59:51 16° WNW 00:59:51 16° WNW visible
07 Aug 3.4 22:58:36 10° N 23:02:46 37° NNE 23:02:46 37° NNE visible
08 Aug 4.2 00:43:20 10° NW 00:44:32 15° WNW 00:44:32 15° WNW visible
08 Aug 3.6 22:43:47 10° N 22:47:32 33° NNE 22:47:32 33° NNE visible
09 Aug 4.3 00:28:23 10° NW 00:29:19 14° NW 00:29:19 14° NW visible
09 Aug 3.8 22:28:58 10° N 22:32:24 30° NNE 22:32:24 30° NNE visible
10 Aug 4.4 00:13:26 10° NW 00:14:11 13° NW 00:14:11 13° NW visible
10 Aug 3.9 22:14:08 10° N 22:17:20 28° NNE 22:17:20 28° NNE visible
10 Aug 4.5 23:58:31 10° NW 23:59:07 13° NW 23:59:07 13° NW visible
11 Aug 4.0 21:59:20 10° N 22:02:19 26° NNE 22:02:19 26° NNE visible
11 Aug 4.5 23:43:35 10° NW 23:44:07 12° NW 23:44:07 12° NW visible
12 Aug 4.1 21:44:31 10° N 21:47:22 25° NNE 21:47:22 25° NNE visible
12 Aug 4.6 23:28:40 10° NW 23:29:10 12° NW 23:29:10 12° NW visible
13 Aug 4.1 21:29:43 10° N 21:32:29 24° NNE 21:32:29 24° NNE visible
13 Aug 4.6 23:13:45 10° NW 23:14:16 12° NW 23:14:16 12° NW visible
14 Aug 4.2 21:14:55 10° N 21:17:37 23° NNE 21:17:37 23° NNE visible
14 Aug 4.7 22:58:50 10° NW 22:59:24 13° NW 22:59:24 13° NW visible
15 Aug 4.2 21:00:06 10° N 21:02:47 22° NNE 21:02:47 22° NNE visible
15 Aug 4.7 22:43:56 10° NW 22:44:35 13° NW 22:44:35 13° NW visible
